Weather Roundup
Issued by NWS Corpus Christi, TX

Home | Current Version | Previous Version | Text Only | Print | Product List | Glossary On
Versions: 1 2 3 4 5 6 7 8 9 10 11 12 13 14 15 16 17 18 19 20 21 22 23 24 25 26 27 28 29 30 31 32 33 34 35 36 37 38 39 40 41 42 43 44 45 46 47 48 49 50
000
ASUS44 KCRP 301710
HRRCRP

SOUTH TEXAS REGIONAL WEATHER ROUNDUP
NATIONAL WEATHER SERVICE CORPUS CHRISTI TX
1200 PM CDT TUE SEP 30 2014


TXZ229>244-301800-
...CORPUS CHRISTI AREA OBSERVATIONS...

CITY           SKY/WX    TMP DP  RH WIND       PRES   REMARKS
CORPUS CHRISTI PTSUNNY   82  75  79 NE8       29.85F
NAS CORPUS CHR PTSUNNY   82  75  79 E14       29.84S
ROCKPORT       PTSUNNY   83  75  77 E8        29.85F HX  90
KINGSVILLE NAS PTSUNNY   86  77  74 E7        29.85F HX  97
ALICE          PTSUNNY   84  74  71 E7        29.86S HX  91
FALFURRIAS     MOSUNNY   83  75  78 E6        29.85F HX  90
$$

...VICTORIA AREA OBSERVATIONS...

CITY           SKY/WX    TMP DP  RH WIND       PRES   REMARKS
VICTORIA       MOSUNNY   84  73  69 SE5       29.88S HX  90
BEEVILLE       FAIR      84  71  65 E5        29.87S
PLEASANTON     MOSUNNY   85  68  56 E5        29.88F
SAN ANTONIO    MOSUNNY   85  66  53 SE7       29.90F
$$

...LAREDO AREA OBSERVATIONS...

CITY           SKY/WX    TMP DP  RH WIND       PRES   REMARKS
LAREDO         SUNNY     85  70  60 CALM      29.90F
COTULLA        SUNNY     86  67  52 VRB5      29.88F
DEL RIO        SUNNY     82  69  64 SE15      29.87F
MCALLEN        CLOUDY    81  75  82 SE6       29.86F
HEBBRONVILLE     N/A     83  71  68 NE3       29.88F
$$

...OTHER TEXAS OBSERVATIONS...

CITY           SKY/WX    TMP DP  RH WIND       PRES   REMARKS
BROWNSVILLE    PTSUNNY   84  77  79 CALM      29.84F HX  94
HOUSTON        MOSUNNY   86  73  65 E6        29.88S HX  93
COL. STATION   PTSUNNY   83  72  69 CALM      29.88F
AUSTIN         MOSUNNY   83  68  60 CALM      29.88F
WACO           SUNNY     86  68  54 S8        29.89F
FORT WORTH     PTSUNNY   84  67  56 S9        29.88F
WICHITA FALLS  SUNNY     86  59  39 S15G24    29.86F
LUBBOCK        MOSUNNY   75  61  61 SW12      29.90F
EL PASO        SUNNY     79  51  37 W14       29.97S
$$

...MARINE OBSERVATIONS...

STATION/POSITION TIME  SKY/WX   TEMP    WIND        PRES    VSBY  WAVE   SWELL
                                AIR SEA DIR/SP/G                  HT/PER HT/PER
                 (UTC)          (F)     (DEG/KT/KT) (MB)    (MI)  (FT/S) (FT/S)
PORT ARANSAS     1700            78 80   70/ 13/ 14 1010.9F
BUOY 90 E PORT A 1700            82 84  110/  6/  6 1011.2F         2/ 6   2/ 6
BUOY 45 SE BAFFI 1700            82 86  300/  2/  2 1010.1F         2/ 5   2/ 5
BUOY 200 E PT IS 1700            83 84  180/  8/ 10 1011.4R         1/ 6   2/ 6
BUOY 15 E GALVES 1700            80 82   90/  8/ 10 1011.3F         1/ 5   2/ 5
$$


USA.gov is the U.S. government's official web portal to all federal, state and local government web resources and services.